Location: Piotrkow Trybunalski
(51.4000°N, 19.6830°E)
Time: 11:46:19
(UTC+02:00)

CZ-6A DEB - Visible Passes

Search period start: 09 October 2024 00:00
Search period end: 19 October 2024 00:00
Orbit: 733 x 843 km, 98.7° (Epoch: 07 October)

Date Brightness Start Highest point End Pass type
(mag) Time Alt. Az. Time Alt. Az. Time Alt. Az.
09 Oct ? 19:48:09 10° SW 19:51:37 19° W 19:55:03 10° NW visible
10 Oct ? 06:14:37 10° NE 06:17:40 16° E 06:20:43 10° SE visible
10 Oct ? 19:16:47 10° SSW 19:21:13 32° W 19:25:38 10° NNW visible
11 Oct ? 18:46:03 10° S 18:50:56 56° WSW 18:55:47 10° NNW visible
12 Oct ? 19:57:54 10° SW 20:00:50 16° W 20:03:46 10° NW visible
13 Oct ? 06:23:19 10° NE 06:26:51 19° E 06:30:25 10° SE visible
13 Oct ? 19:26:07 10° SSW 19:30:18 27° W 19:34:29 10° NW visible
14 Oct ? 05:55:16 10° ENE 05:56:13 10° E 05:57:11 10° E visible
14 Oct ? 18:55:07 10° S 18:59:53 47° W 19:04:39 10° NNW visible
15 Oct ? 18:24:37 10° SSE 18:29:33 84° WSW 18:34:31 10° NNW visible
15 Oct ? 20:07:31 10° WSW 20:09:47 13° W 20:12:04 10° WNW visible
16 Oct ? 06:31:50 10° NE 06:35:45 22° E 06:39:43 10° SE visible
16 Oct ? 19:35:14 10° SW 19:39:07 23° W 19:43:02 10° NW visible
17 Oct ? 06:02:52 10° ENE 06:05:05 13° E 06:07:20 10° ESE visible
17 Oct ? 19:03:57 10° SSW 19:08:35 40° W 19:13:13 10° NNW visible
18 Oct ? 18:33:14 10° S 18:38:08 72° WSW 18:43:04 10° NNW visible
18 Oct ? 20:17:14 10° W 20:18:29 11° W 20:19:45 10° WNW visible
